CDT,Max TemperatureF,Mean TemperatureF,Min TemperatureF,Max Dew PointF,MeanDew PointF,Min DewpointF,Max Humidity, Mean Humidity, Min Humidity, Max Sea Level PressureIn, Mean Sea Level PressureIn, Min Sea Level PressureIn, Max VisibilityMiles, Mean VisibilityMiles, Min VisibilityMiles, Max Wind SpeedMPH, Mean Wind SpeedMPH, Max Gust SpeedMPH,PrecipitationIn, CloudCover, Events, WindDirDegrees
2013-5-1,67,50,33,57,44,32,94,81,65,30.38,29.99,29.66,10,8,2,39,23,48,0.00,4,,5
2013-5-2,52,40,29,32,27,17,95,67,27,30.58,30.50,30.39,10,8,1,34,26,44,0.00,6,,359
2013-5-3,65,45,25,23,19,14,78,41,16,30.46,30.22,30.04,10,10,10,22,11,28,0.00,0,,323
2013-5-4,67,48,28,27,17,5,67,35,9,30.15,30.07,30.02,10,10,10,33,11,43,0.00,0,,348
2013-5-5,70,50,31,33,26,18,79,46,15,30.23,30.16,30.09,10,10,10,16,8,23,0.00,0,,5
2013-5-6,77,58,40,44,36,30,78,47,21,30.14,30.08,30.02,10,10,10,20,8,28,0.00,2,,184
2013-5-7,85,65,45,46,43,35,87,48,18,30.05,29.95,29.82,10,10,10,24,12,33,0.00,1,,173
2013-5-8,90,70,51,50,39,25,70,38,10,29.91,29.85,29.75,10,10,7,33,13,46,0.00,0,,188
2013-5-9,77,64,52,51,46,42,85,53,30,30.11,29.99,29.91,10,10,10,22,13,29,0.01,4,,358
2013-5-10,73,60,49,52,44,36,95,60,26,30.19,30.13,30.09,10,10,3,17,7,20,0.00,4,,26
2013-5-11,75,58,43,45,39,35,82,49,26,30.30,30.25,30.19,10,10,10,20,8,25,0.00,1,,9
2013-5-12,86,64,42,42,36,32,81,42,14,30.31,30.17,30.02,10,10,10,25,10,33,0.00,1,,211
2013-5-13,93,73,53,37,33,28,52,28,10,30.14,30.08,30.01,10,10,10,22,11,25,0.00,0,,217
2013-5-14,91,74,56,45,35,31,42,25,12,30.06,29.98,29.87,10,10,7,28,15,33,0.00,0,,200
2013-5-15,86,71,56,54,48,44,74,46,23,29.90,29.84,29.76,10,10,10,21,14,28,0.00,0,,171
2013-5-16,86,68,51,59,52,45,98,63,24,29.91,29.84,29.76,10,8,0,17,7,25,0.00,2,,130
2013-5-17,90,73,56,68,59,53,98,68,28,29.90,29.85,29.78,10,8,0,24,12,30,0.00,3,,144
2013-5-18,102,84,65,69,48,21,96,46,5,29.84,29.74,29.59,10,8,2,25,15,58,0.00,0,,178
2013-5-19,85,70,55,59,47,33,92,47,18,29.75,29.70,29.66,10,10,5,22,11,36,0.00,1,,324
2013-5-20,82,65,49,46,42,34,68,47,19,29.92,29.81,29.74,10,10,5,23,8,34,0.00,1,,352
2013-5-21,78,65,53,44,37,31,64,39,18,29.97,29.91,29.82,10,10,5,34,12,40,0.00,1,,351
2013-5-22,88,64,41,48,39,31,66,39,19,29.98,29.91,29.83,10,10,10,17,7,25,0.00,0,,108
2013-5-23,71,65,59,56,54,50,83,69,56,30.14,30.02,29.91,10,10,10,23,16,29,0.00,2,,89
2013-5-24,88,74,59,60,55,46,89,61,24,30.17,30.10,29.99,10,10,7,30,15,37,0.00,3,,149
2013-5-25,89,74,60,61,56,53,86,56,29,30.14,30.03,29.92,10,10,10,29,19,36,0.00,1,,180
2013-5-26,98,82,65,62,52,41,88,34,14,29.96,29.85,29.79,10,10,10,29,20,37,0.00,0,,174
2013-5-27,101,86,72,62,38,5,69,30,4,29.83,29.73,29.64,10,10,10,26,19,39,0.00,0,,212
2013-5-28,96,80,65,64,56,36,89,51,12,29.72,29.68,29.60,10,10,2,40,17,56,0.15,0,,201
2013-5-29,82,72,64,66,60,46,90,66,41,29.67,29.58,29.43,10,10,7,34,24,78,0.08,1,,162
2013-5-30,93,74,55,64,42,23,93,45,8,29.74,29.63,29.50,10,10,5,29,16,40,0.01,1,,247
2013-5-31,92,72,52,57,46,29,97,50,12,29.87,29.76,29.66,10,10,5,32,12,44,0.01,0,,18